Location: Edelweiler
(48.5379°N, 8.5464°E)
Time: 21:01:49
(UTC+00:00)

Daily predictions for brighter satellites

Satellite Brightness Start Highest point End
(mag) Time Altitude Azimuth Time Altitude Azimuth Time Altitude Azimuth
Cosmos 2233 Rocket 4.5 17:45:43 10° SSW 17:51:50 69° W 17:58:03 10° N
In-Cosmos 22 4.4 17:47:25 10° N 17:52:54 49° ENE 17:58:13 10° SSE
USA 267 3.8 17:47:40 10° NE 17:54:08 63° NNW 18:00:36 10° WSW
Cosmos 1943 Rocket 2.3 17:49:25 10° NNW 17:54:58 87° WSW 18:00:31 10° SSE
SJ-6B 3.5 17:52:13 10° SE 17:55:21 29° ENE 17:58:30 10° N
Okean 3 Rocket 3.8 17:51:27 10° SSE 17:55:42 48° E 17:59:57 10° NNE
KORONAS-FOTON 3.7 17:52:02 10° N 17:55:44 88° W 17:59:23 10° S
Cosmos 2150 Rocket 4.3 17:50:55 10° NNW 17:55:52 45° ENE 18:00:47 10° SE
Iridium 4 Rocket 3.0 17:52:01 10° N 17:56:12 90° E 18:00:32 10° S
NOSS 3-3 (A) 3.9 17:51:38 10° SSW 17:56:49 55° ESE 18:02:55 10° NE
Cosmos 1408 Rocket 4.3 17:53:59 10° SSE 17:57:51 31° E 18:01:45 10° NNE
SL-08 R/B 4.0 17:54:10 10° NNE 17:58:38 34° E 18:03:03 10° SSE
Cosmos 2298 Rocket 4.3 17:53:50 10° NNW 17:58:59 49° ENE 18:04:06 10° SE
Cosmos 158 Rocket 3.9 17:57:05 10° S 18:01:48 55° ESE 18:06:35 10° NNE
SeaSat 1 2.5 17:57:04 10° NE 18:01:56 58° ESE 18:06:45 10° SSW
Helios 1A 4.0 17:59:03 10° NE 18:02:24 24° E 18:05:44 10° SSE
Cosmos 1513 Rocket 4.5 17:58:05 10° S 18:04:03 66° E 18:10:10 10° NNE
Sich 1 4.0 18:01:31 10° SE 18:05:04 26° E 18:08:40 10° NNE
Okean O Rocket 3.4 18:04:10 10° E 18:06:44 15° ENE 18:09:16 10° NNE
Cosmos 1328 Rocket 4.3 18:02:40 10° NNW 18:06:54 57° W 18:11:07 10° S
Tiangong 0.1 18:05:45 10° S 18:07:11 13° SSE 18:08:38 10° SE
COSMO-SKYMED 1 3.4 18:03:10 10° N 18:07:26 57° WNW 18:11:42 10° SSW
Cosmos 1656 Rocket 4.3 18:03:21 10° NNW 18:08:38 39° NE 18:13:49 10° ESE
Cosmos 1607 4.4 18:03:55 10° S 18:09:55 43° ESE 18:15:56 10° NE
Cosmos 2297 4.4 18:04:52 10° NNW 18:10:03 36° NE 18:15:14 10° ESE
Aureole 3 Rocket 4.2 18:06:38 10° SSE 18:11:15 28° E 18:14:51 10° NE
Meteor 1-4 Rocket 4.3 18:10:31 10° NW 18:12:48 26° W 18:15:04 10° SSW
Cosmos 2369 Rocket 3.1 18:09:42 10° NNW 18:14:52 33° NE 18:19:41 11° ESE
Helios 1B rocket 2.9 18:11:36 10° S 18:15:23 60° WSW 18:19:12 10° NNW
CZ-4 R/B 1.9 18:12:01 10° SE 18:15:35 36° ENE 18:19:15 10° N
TRACE 4.3 18:14:32 10° NNE 18:17:52 61° E 18:21:11 10° S
Cosmos 1464 Rocket 4.0 18:11:48 10° S 18:18:03 65° E 18:24:23 10° NNE
ARIANE 6 FM1 Upper Stage 4.3 18:17:20 10° SSE 18:19:54 16° ESE 18:21:45 12° E
Cosmos 1980 4.0 18:14:42 10° SW 18:20:22 74° WNW 18:26:06 10° NNE
NOSS 3-4 (A) 4.0 18:14:51 10° NW 18:21:25 57° NE 18:28:32 12° ESE
NOSS 3-4 (C) 4.0 18:14:56 10° NW 18:21:30 57° NE 18:28:35 12° ESE
CZ-4B R/B 3.3 18:21:28 10° SE 18:25:20 45° ENE 18:29:21 10° N
Meteor 1-13 Rocket 4.2 18:21:27 10° N 18:27:19 83° ENE 18:33:00 10° SSE
Cosmos 1805 Rocket 3.9 18:24:44 10° SSE 18:28:47 41° E 18:32:53 10° NNE
Cosmos 2228 Rocket 4.3 18:26:36 10° NNE 18:30:19 24° ENE 18:32:38 16° ESE
Cosmos 1441 Rocket 4.3 18:29:41 14° SE 18:31:34 21° E 18:34:16 10° NE
Cosmos 2084 Rocket 4.4 18:30:07 10° S 18:33:44 26° ESE 18:37:01 11° ENE
Cosmos 1975 3.6 18:31:21 10° SSE 18:34:41 28° E 18:38:03 10° NNE
Resurs 01 Rocket 2.0 18:30:32 10° SE 18:34:43 43° ENE 18:38:54 10° N
Cosmos 1707 4.4 18:35:59 10° NNW 18:39:11 32° W 18:42:23 10° SSW
Okean-O 4.1 18:39:41 17° E 18:40:59 19° ENE 18:44:04 10° NNE
Cosmos 2034 Rocket 3.9 18:39:07 10° S 18:45:14 70° E 18:51:22 10° NNE
Cosmos 1707 Rocket 4.5 18:42:22 10° N 18:46:17 29° ENE 18:47:57 23° ESE
Meteor PRIRODA 3.5 18:43:31 10° S 18:46:47 72° WSW 18:50:04 10° NNW
USA 306 3.4 18:43:51 10° WNW 18:46:54 36° NNE 18:48:52 20° ENE
ISS -3.0 18:44:00 10° WNW 18:47:15 47° N 18:49:13 21° ENE
Cosmos 2208 Rocket 4.3 18:45:54 10° SSW 18:51:11 71° WNW 18:56:34 10° NNE
ACS3 Solar Sail 2.2 18:48:36 14° SE 18:54:01 50° ENE 19:00:10 10° N
Cosmos 1733 4.5 18:50:58 10° SSW 18:54:12 39° WNW 18:57:26 10° N
SL-16 R/B 2.1 18:49:31 10° SSW 18:55:07 65° ESE 19:00:44 10° NNE
Cosmos 1315 Rocket 3.7 18:53:25 10° NNW 18:57:17 51° W 19:01:07 10° S
Cosmos 1805 3.0 18:54:09 10° S 18:57:48 89° NNW 19:01:29 10° N
SPOT 1/Viking Rocket 4.4 19:01:12 10° S 19:06:13 51° W 19:11:15 10° NNW
Okean 3 4.0 19:03:55 10° N 19:07:51 38° ENE 19:08:32 35° E
Cosmos 1943 3.9 19:07:44 28° ESE 19:08:12 29° ESE 19:12:58 10° NE
Meteor 1-11 Rocket 4.3 19:02:47 10° SSW 19:08:15 59° WNW 19:13:43 10° N
ATLAS CENTAUR R/B 3.7 19:05:43 10° W 19:08:32 20° NNW 19:11:28 10° NNE
SL-14 R/B 3.3 19:05:50 10° NNW 19:09:38 74° W 19:12:46 15° S
Cosmos 783 Rocket 4.4 19:05:52 10° S 19:11:04 64° ESE 19:16:16 10° NNE
ATLAS 2AS CENTAUR R/B 4.3 19:05:38 10° NW 19:11:09 24° N 19:16:25 10° ENE
PSLV R/B 4.3 19:14:51 34° NE 19:14:51 34° NE 19:17:41 10° N
Meteor 1-21 4.2 19:09:00 10° N 19:14:50 84° E 19:19:45 15° SSE
CSL-04 Rocket 3.5 19:11:58 16° SSE 19:16:13 86° ENE 19:21:32 10° NNW
CZ-4B R/B 3.1 19:13:15 13° SSE 19:18:04 85° WSW 19:23:26 10° NNW
Cosmos 2263 4.2 19:13:20 10° NNW 19:19:02 66° ENE 19:21:32 34° SE
USA 186 2.8 19:24:41 24° SSW 19:26:17 44° W 19:29:24 10° NNW
Cosmos 1743 Rocket 4.4 19:29:07 10° SSW 19:33:20 50° WNW 19:37:36 10° N
Cosmos 2237 Rocket 4.3 19:29:21 10° WSW 19:34:06 27° NW 19:38:52 10° NNE
USA 267 4.2 19:31:14 14° ENE 19:36:35 43° N 19:42:42 10° WNW
Cosmos 2026 Rocket 4.3 19:31:14 10° NNW 19:37:21 65° W 19:43:21 10° S
SeaSat 1 4.5 19:34:56 10° NNE 19:39:05 28° NW 19:43:14 10° WSW
Cosmos 1766 3.5 19:41:43 54° NNE 19:41:43 54° NNE 19:44:38 10° N
Cosmos 2266 Rocket 4.4 19:35:44 10° N 19:41:47 45° ENE 19:42:48 41° E
Okean O Rocket 1.7 19:41:03 43° S 19:42:25 76° WSW 19:46:51 10° NNW
Tiangong 0.6 19:40:42 10° SW 19:41:06 12° SW 19:41:06 12° SW
GEOS 3 Rocket 3.5 19:41:58 47° SE 19:43:30 84° SW 19:48:43 10° NW
CZ-4 R/B 3.7 19:47:12 10° SW 19:50:13 21° W 19:53:17 10° NW
SPOT 5 2.5 19:54:01 79° ENE 19:54:01 79° ENE 19:58:20 10° NNW
ARIANE 6 FM1 Upper Stage 2.9 19:54:25 10° SW 19:58:11 67° WSW 19:58:11 67° WSW
Cosmos 2369 Rocket 2.9 19:53:36 10° NW 19:59:08 51° WSW 20:01:29 31° SSW
Okean 2 3.7 19:55:53 10° N 19:59:09 58° N 19:59:09 58° N
Terra 2.4 20:00:58 44° NE 20:00:58 44° NE 20:04:44 10° N
Cosmos 2344 4.5 19:53:38 10° NW 20:01:01 43° NNE 20:05:08 29° E
BREEZE-M DEB (TANK) 3.6 19:44:25 10° W 20:02:05 90° NW 20:03:29 56° ESE
Aureole 3 3.8 19:59:09 10° N 20:03:48 78° E 20:03:54 78° E
Okean 1-7 3.4 20:03:59 10° N 20:07:26 57° N 20:07:26 57° N
Cosmos 2228 Rocket 4.2 20:04:19 10° NNW 20:08:37 42° W 20:10:04 32° SW
Cosmos 1633 Rocket 3.3 20:09:43 66° W 20:09:44 66° WNW 20:14:08 10° N
Resurs 01 Rocket 3.8 20:07:53 10° SW 20:11:19 23° W 20:14:49 10° NW
MetOp-B 4.1 20:11:41 68° SSW 20:12:20 80° WSW 20:17:45 10° NNW
Cosmos 2084 Rocket 4.2 20:08:24 10° WSW 20:12:35 49° NW 20:13:11 45° NNW
Cosmos 1538 Rocket 3.9 20:13:36 79° NE 20:13:36 79° NE 20:18:41 10° NNE
Okean-O 3.1 20:17:08 56° W 20:17:08 56° W 20:21:19 10° NNW
USA 306 4.5 20:16:06 10° WNW 20:17:50 28° WNW 20:17:50 28° WNW
MOS 1 Rocket 3.6 20:20:11 73° SW 20:20:28 75° WSW 20:25:53 10° NNW
Spot 2 Rocket 3.9 20:23:41 53° NNE 20:23:41 53° NNE 20:27:42 10° N
SL-08 ROCKET BODY 4.2 20:16:46 10° N 20:22:57 85° E 20:23:17 80° SE
ISS -1.1 20:20:55 10° WNW 20:22:09 21° WNW 20:22:09 21° WNW
ERS-1 Rocket 3.1 20:26:14 71° NNW 20:26:14 71° NNW 20:30:44 10° NNW
IRS-1A Rocket 4.2 20:27:25 76° SW 20:27:41 79° WSW 20:33:21 10° NNW
ACS3 Solar Sail 3.2 20:33:51 16° SSW 20:38:12 34° W 20:44:00 10° NNW
SL-16 R/B 4.2 20:34:54 10° WSW 20:39:41 27° NW 20:44:30 10° NNE
SPOT 3 Rocket 4.2 20:41:30 49° N 20:41:30 49° N 20:45:17 10° NNW
Meteor 2-5 Rocket 4.4 20:40:01 10° N 20:44:37 49° NNE 20:44:37 49° NNE
Cosmos 1943 3.8 20:49:01 27° WSW 20:51:55 53° NW 20:57:29 10° NNE
Ariane Rocket 3.9 20:57:45 45° NNW 20:57:45 45° NNW 21:01:17 10° NNW
Cosmos 1697 Rocket 4.2 20:54:44 10° NNW 20:58:31 27° NNE 20:58:31 27° NNE
ATLAS 2AS CENTAUR R/B 3.3 20:57:16 10° NW 21:03:50 44° NE 21:03:50 44° NE
Cosmos 1655 Rocket 4.2 20:57:38 10° NNW 21:03:30 70° NW 21:03:30 70° NW
USA 267 3.7 21:18:35 51° NNE 21:18:55 52° NNE 21:25:14 10° WNW
Terra 4.2 21:39:40 19° WNW 21:39:40 19° WNW 21:41:43 10° NW
Cosmos 1980 Rocket 4.0 21:58:07 10° NNW 22:00:49 25° N 22:00:49 25° N
Cosmos 2344 4.1 22:07:50 10° NW 22:15:07 67° W 22:15:07 67° W
ATLAS 2AS CENTAUR R/B 4.3 22:48:20 10° NW 22:51:13 26° NW 22:51:13 26° NW
Cosmos 2322 Rocket 4.4 23:04:31 10° N 23:07:17 21° NNE 23:07:17 21° NNE
SL-16 R/B 4.4 23:32:56 10° NNW 23:34:52 21° NNW 23:34:52 21° NNW
Cosmos 2333 Rocket 4.2 23:48:59 10° NNW 23:51:31 23° N 23:51:31 23° N
